sat.trackr.live / text

‹ back to catalog

STARLINK-32302

NORAD 61621 · 2024-191A

PAYLOAD ACTIVE UNKNOWN

§ Identity

Operator
Country
US
Launch date
2024-10-23
Launch site
AFETR
Launch vehicle
Mass (kg)
RCS (m²)

Purposes: comms

External: N2YO · Heavens-Above · Gunter

§ Orbital elements

Epoch: 2026-05-24T13:34:21.745344Z

Period
94.27 min
Inclination
43.0030°
Eccentricity
0.0001117
Mean motion
15.27583486 rev/d
Perigee alt
482.3 km
Apogee alt
483.8 km
Semi-major
6,861.2 km
B*
1.2236e-5
RAAN
85.7386°
Arg perigee
269.4330°
Mean anomaly
90.6393°
Rev number
8,989

§ Raw data

STARLINK-323021 61621U 24191A   26144.56552946  .00000075  00000+0  12236-4 0  99912 61621  43.0030  85.7386 0001117 269.4330  90.6393 15.27583486 89895

JSON: /api/v1/satellites/61621 · /tle

For live sub-satellite position, see the globe view (requires WebGL).

§ Visibility from observer

Set your observer location to see the next 7 days of passes ≥ 10°. The values pass through the URL so the page stays shareable.

No JS? Fill the form by hand. The geolocation button needs JavaScript.